カタログに戻る

WEILI KONGJIAN 05-02

運用中ナビゲーションLEO
NORAD 69583·PAYLOAD·🇨🇳 China
この衛星名は、まだ公式ソースで確認されていません。

打ち上げ Jun 17, 2026 から Jiuquan Satellite Launch Center

Loading…

次のパス (今後24時間)

TLE

最新Source: Space-Track

元期: Sep 14, 2026, 12:43 UTC

1 69583U 26138B   26257.53034844  .00000057  00000-0  12131-3 0  9997
2 69583  55.1416 311.7997 0006709 303.2948  56.7380 14.08169671 12660

AllMySatでWEILI KONGJIAN 05-02をリアルタイム追跡

Download on the App Store